TIME,DELAY(SENSOR),PRES,OXYGEN,RAWTEMP,T(OPTODE),TCPHASE,FLUOR,BETA(BETA700),BETA(BETA412),BETA(BETA440),CDOM,C(CSC),ED(ED411.90),ED(ED443.80),ED(ED489.40),ED(ED554.70),LU(LU412.20),LU(LU443.80),LU(LU489.40),LU(LU555.00),COMP,TILTX,TILTY,CHECK
1373754188,5805,854.7600097656250000,141.9958953857422000,425.0043945312500000,9.8391561508178710,40.8353691101074200,53,109,77,76,77,9990,2146961362,2147519360,2147285778,2147497097,2147089426,2146930093,2147701321,2147119872,1400,-1,8,35225
1373757784,5806,961.1199951171875000,159.0888977050781200,489.2952880859375000,7.8612208366394040,40.5250396728515600,53,110,77,74,76,9981,2146960173,2147516653,2147296694,2147512000,2147085915,2146921362,2147713344,2147122989,358,-1,8,49936
1373761384,5806,976.2899780273438000,155.9721069335937500,499.0757141113281000,7.5581650733947750,40.9331016540527340,52,110,78,74,77,9976,2146963675,2147517202,2147297197,2147512256,2147087040,2146923337,2147715328,2147119625,532,-1,8,61071
1373764984,5806,978.0000000000000000,133.3845062255859400,499.9619140625000000,7.5306768417358400,42.8114204406738300,53,110,79,75,77,9980,2146963254,2147521243,2147298194,2147511981,2147087021,2146922102,2147714441,2147120283,3096,-1,8,17309
1373768584,5807,978.3200073242188000,119.3240966796875000,502.6353149414062500,7.4477119445800780,44.1357688903808600,51,111,80,74,77,9978,2146964224,2147520941,2147298733,2147512758,2147086774,2146923840,2147717430,2147123748,28,-1,8,41857
1373772184,5803,977.8900146484375000,173.6374053955078000,505.7926940917969000,7.3496680259704590,39.7404708862304700,52,111,77,76,77,9977,2146964214,2147520411,2147298422,2147517138,2147087478,2146918500,2147718656,2147124534,2761,-1,8,55851
1373775784,5805,978.8300170898438000,170.7052001953125000,506.9255981445312500,7.3144731521606445,39.9696693420410160,54,113,80,74,77,9975,2146964882,2147522596,2147298898,2147515620,2147086637,2146924900,2147715794,2147123657,3378,-1,8,7762
1373779384,5805,980.8900146484375000,168.8354034423828000,508.0268859863281000,7.2802491188049320,40.1238098144531250,53,111,79,73,77,9973,2146963154,2147519076,2147299958,2147512256,2147086921,2146919241,2147714514,2147121371,3143,-1,8,40400
1373782984,5806,978.2899780273438000,164.5747985839843800,509.6607055664062500,7.2294650077819820,40.4644393920898440,53,109,77,74,77,9975,2146962998,2147520018,2147296118,2147513051,2147086902,2146925037,2147715474,2147119853,376,-1,8,21372
1373786584,5805,983.0900268554688000,172.3231048583984400,509.5696105957031000,7.2322959899902340,39.8997688293457000,52,116,77,75,77,9972,2146964315,2147519497,2147300544,2147513563,2147089462,2146922569,2147714925,2147121563,3328,-1,8,38787
1373790184,5805,981.8499755859375000,172.7205963134765600,509.9125976562500000,7.2216339111328125,39.8778190612793000,53,110,77,77,77,9973,2146963355,2147517622,2147299190,2147515867,2147087369,2146920877,2147719396,2147121709,3157,0,8,36603
1373793784,5806,983.0000000000000000,186.6127929687500000,509.9902954101562500,7.2192177772521970,38.9283790588378900,51,110,77,73,76,9975,2146965293,2147519552,2147297682,2147514825,2147086601,2146917065,2147713837,2147121536,3112,-1,8,41688
1373797384,5804,983.9899902343750000,179.1385040283203000,509.8009948730469000,7.2251038551330570,39.4278602600097660,52,110,78,74,76,9973,2146964790,2147519012,2147300214,2147513929,2147087808,2146920557,2147715730,2147122441,3327,-1,8,46581
1373800984,5804,984.1400146484375000,180.3079986572265600,510.0730895996094000,7.2166428565979000,39.3531990051269500,53,118,77,77,76,9975,2146961444,2147522130,2147298889,2147516251,2147088384,2146920338,2147712841,2147122194,3131,-1,8,47024
1373804584,5806,987.1099853515625000,180.8796997070312500,509.9390869140625000,7.2208089828491210,39.3115501403808600,52,112,77,75,77,9971,2146961426,2147523035,2147299419,2147513636,2147088411,2146918966,2147714450,2147119113,3505,-1,8,175
1373808184,5806,983.3300170898438000,170.4470977783203000,510.0981140136719000,7.2158641815185550,40.0434989929199200,53,113,77,75,76,9972,2146958546,2147517778,2147297508,2147512603,2147085028,2146916242,2147718363,2147122267,88,-1,8,61115
1373811784,5804,985.0999755859375000,186.6623992919922000,510.9030151367187500,7.1908359527587890,38.9416694641113300,53,110,77,75,77,9972,2146963620,2147514669,2147299483,2147515702,2147084507,2146921426,2147717531,2147120649,3092,-1,8,63971
1373815384,5806,985.3499755859375000,172.9170074462890600,510.1577148437500000,7.2140097618103030,39.8688888549804700,53,113,77,75,78,9968,2146963446,2147519552,2147297764,2147513353,2147088109,2146916598,2147720292,2147119168,3334,-1,8,29641
1373818984,5803,987.5399780273438000,176.4680023193359400,510.0957031250000000,7.2159399986267090,39.6186103820800800,53,111,76,75,77,9972,2146963492,2147515200,2147295789,2147516178,2147089188,2146920512,2147717970,2147120182,3500,-1,8,24356
1373822584,5806,982.8300170898438000,183.9575958251953000,511.2467956542969000,7.1801447868347170,39.1275215148925800,53,111,77,75,77,9973,2146964205,2147518692,2147298980,2147515803,2147088310,2146922843,2147720109,2147119250,160,-1,8,39603
1373826184,5806,982.5300292968750000,189.3961944580078000,512.2819824218750000,7.1479439735412600,38.7870216369628900,53,112,78,74,77,9967,2146962980,2147522102,2147297188,2147515099,2147087606,2146918573,2147717531,2147121170,569,-1,8,57367
1373829784,5807,979.3800048828125000,180.8318939208984400,513.6126708984375000,7.1065449714660645,39.3803291320800800,53,112,78,74,76,9963,2146962797,2147520557,2147297362,2147515638,2147087250,2146921197,2147718281,2147123053,328,-1,8,53804
1373833384,5806,981.2600097656250000,162.8748931884765600,514.2131958007812000,7.0878567695617680,40.6694602966308600,54,111,78,74,77,9967,2146961874,2147519378,2147300114,2147513627,2147085814,2146923081,2147718902,2147122166,3355,-1,8,35496
1373836984,5805,978.6599731445312000,179.8580932617187500,515.1359863281250000,7.0591359138488770,39.4732017517089840,52,115,78,74,76,9966,2146963145,2147518244,2147297755,2147512777,2147086893,2146921078,2147721371,2147121974,2923,-1,8,18867
1373840584,5804,982.1500244140625000,191.4989929199218800,514.6281738281250000,7.0749411582946780,38.6921501159668000,52,112,78,74,77,9969,2146961261,2147520164,2147298404,2147514779,2147085193,2146924882,2147715538,2147122395,3483,-1,8,31983
1373844184,5806,980.2000122070312000,198.7835998535156200,515.6093750000000000,7.0444002151489260,38.2480506896972660,52,114,78,75,77,9966,2146963456,2147516845,2147300589,2147515602,2147089837,2146918226,2147718436,2147123328,3150,-1,8,64572
1373847784,5805,983.0599975585938000,197.0348052978515600,514.9077758789062000,7.0662369728088380,38.3450889587402340,53,113,77,75,78,9965,2146962715,2147520987,2147299300,2147515483,2147087113,2146921773,2147718217,2147119981,3272,-1,8,35048
1373851384,5803,982.9299926757812000,197.4841003417968800,514.9475708007812000,7.0650010108947750,38.3178787231445300,54,113,76,75,76,9967,2146964452,2147517686,2147298093,2147514916,2147085842,2146918829,2147717769,2147123995,3432,-1,8,46654
1373854984,5808,983.4299926757812000,194.4427947998047000,514.2592163085938000,7.0864272117614750,38.4975090026855500,53,114,77,75,77,9969,2146964790,2147517531,2147298331,2147511899,2147085558,2146924525,2147719113,2147121005,3399,-1,8,29783
1373858584,5807,983.1799926757812000,199.7088928222656200,514.9379272460938000,7.0653009414672850,38.1788711547851560,53,115,77,75,77,9970,2146967908,2147518720,2147299840,2147510418,2147086016,2146919808,2147719012,2147120365,67,0,8,28419
1373862184,5806,984.7700195312500000,200.2825012207031200,514.9857177734375000,7.0638151168823240,38.1441993713378900,53,115,77,74,77,9969,2146964333,2147516242,2147299163,2147514624,2147086665,2146920018,2147718482,2147121261,144,-1,8,26878
1373865784,5808,982.9699707031250000,197.6058044433593800,515.2742919921875000,7.0548319816589355,38.3151588439941400,53,115,78,75,77,9965,2146962678,2147519040,2147297792,2147517412,2147088448,2146917888,2147717430,2147123309,229,-1,8,24298
1373869384,5808,973.8300170898438000,190.5290069580078000,517.7318725585938000,6.9783082008361820,38.8093109130859400,54,116,81,75,78,9963,2146965165,2147521252,2147297618,2147513170,2147086902,2146916772,2147722240,2147121472,32,-1,8,1823
1373872984,5808,977.2700195312500000,189.5104064941406200,518.4420166015625000,6.9561901092529300,38.8875007629394500,53,115,77,74,76,9968,2146966784,2147516269,2147300260,2147511597,2147087506,2146919314,2147722011,2147119360,64,0,8,56022
1373876584,5809,973.2899780273438000,190.0717926025390600,518.6779174804688000,6.9488391876220700,38.8549995422363300,53,113,77,73,78,9965,2146967040,2147517467,2147297993,2147516150,2147084708,2146920228,2147719058,2147120265,28,-1,8,48080
1373880184,5808,981.7899780273438000,201.1921997070312500,517.7136840820312000,6.9788751602172850,38.1364784240722660,53,114,78,75,78,9964,2146962532,2147518582,2147298377,2147517028,2147085842,2146920320,2147719698,2147120896,431,-1,8,63244
1373883784,5805,980.3800048828125000,188.8816070556640600,517.4041137695312000,6.9885158538818360,38.9109916687011700,53,115,76,75,76,9962,2146963849,2147516690,2147297444,2147513005,2147087414,2146918089,2147715812,2147121353,204,-1,8,17662
1373887384,5808,981.0599975585938000,197.4833984375000000,517.2062988281250000,6.9946770668029785,38.3576583862304700,52,115,78,74,77,9964,2146964004,2147515145,2147295753,2147514057,2147087597,2146915300,2147721106,2147121499,154,-1,8,45492
1373890984,5806,981.4699707031250000,197.1687011718750000,517.2299194335938000,6.9939408302307130,38.3775291442871100,52,115,78,74,77,9967,2146964644,2147520310,2147297810,2147514148,2147086061,2146917430,2147718354,2147119862,102,-1,8,18325
1373894584,5806,981.4799804687500000,192.7864074707031200,517.4758300781250000,6.9862837791442870,38.6588516235351560,53,114,77,73,76,9964,2146965385,2147518217,2147299254,2147516416,2147085622,2146918518,2147716635,2147123931,584,-1,8,33073
1373896855,5805,981.1199951171875000,195.8596954345703000,516.8947143554688000,7.0043811798095700,38.4538383483886700,53,114,78,74,77,9953,2146966089,2147517851,2147299181,2147512923,2147086336,2146917549,2147720173,2147119012,2911,-1,8,49867
